Weather History for Meadow Lake, CO

Change the Weather History Date:

Thursday, August 7, 2014

  Actual Average (KCOS) Record (KCOS)
Temperature  
Mean Temperature 67 °F 70 °F  
Max Temperature 78 °F 83 °F 97 °F (1980)
Min Temperature 55 °F 57 °F 45 °F (1954)
Degree Days  
Heating Degree Days 0 0  
Month to date heating degree days 0  
Since 1 June heating degree days 89  
Since 1 July heating degree days 10  
Cooling Degree Days 2 5  
Month to date cooling degree days 38  
Year to date cooling degree days 322  
Since 1 June cooling degree days 312  
Growing Degree Days 17 (Base 50)    
Moisture  
Dew Point 52 °F    
Average Humidity 65    
Maximum Humidity 91    
Minimum Humidity 42    
Precipitation  
Precipitation 0.00 in 0.13 in 1.10 in (1903)
Month to date precipitation 0.85  
Year to date precipitation 11.30  
Snow  
Snow 0.00 in 0.00 in T in (2004)
Month to date snowfall 0.0  
Since 1 June snowfall 0.0  
Since 1 July snowfall 0.0  
Snow Depth -    
Sea Level Pressure  
Sea Level Pressure 30.26 in    
Wind  
Wind Speed 6 mph (NNE)    
Max Wind Speed 17 mph    
Max Gust Speed 24 mph    
Visibility 10 miles    
Events Rain , Thunderstorm    
T = Trace of Precipitation, MM = Missing Value Source: NWS Daily Summary

Daily Weather History Graph

Daily Weather History Graph

Search for Another Location

Airport:

Trip Planner

Search our weather history database for the weather conditions in past years. The results will help you decide how hot, cold, wet, or windy it might be!

Date:

Astronomy

Aug. 07, 2014 Rise Set
Actual Time 6:04 AM MDT 8:02 PM MDT
Civil Twilight 5:35 AM MDT 8:31 PM MDT
Nautical Twilight 4:59 AM MDT 9:07 PM MDT
Astronomical Twilight 4:21 AM MDT 9:45 PM MDT
Moon 5:21 PM MDT (8/7) 2:37 AM MDT (8/7)
Length of Visible Light 14h 56m
Length of Day
13h 58m
Waxing Gibbous, 87% of the Moon is Illuminated
Aug 7
Waxing Gibbous
Aug 10
Full
Aug 17
Last Quarter
Aug 25
New
Sep 2
First Quarter

Hourly Weather History & Observations

Time (MDT) Temp. Dew Point Humidity Pressure Visibility Wind Dir Wind Speed Gust Speed Precip Events Conditions
12:16 AM 61.7 °F 50.4 °F 66% 30.30 in 10.0 mi North 4.6 mph - N/A   Mostly Cloudy
12:36 AM 62.8 °F 50.5 °F 64% 30.30 in 10.0 mi North 3.5 mph - N/A   Mostly Cloudy
12:56 AM 63.0 °F 49.8 °F 62% 30.29 in 10.0 mi Calm Calm - N/A   Scattered Clouds
1:16 AM 63.0 °F 48.9 °F 60% 30.28 in 10.0 mi Calm Calm - N/A Thunderstorm Clear
1:36 AM 59.7 °F 50.2 °F 71% 30.28 in 10.0 mi North 3.5 mph - N/A   Clear
1:56 AM 60.4 °F 48.9 °F 66% 30.27 in 10.0 mi North 5.8 mph - N/A   Clear
2:16 AM 59.4 °F 49.8 °F 71% 30.27 in 10.0 mi North 6.9 mph - N/A   Clear
2:36 AM 59.2 °F 50.0 °F 72% 30.26 in 10.0 mi North 6.9 mph - N/A   Clear
2:56 AM 59.4 °F 49.5 °F 70% 30.26 in 10.0 mi North 6.9 mph - N/A   Clear
3:16 AM 59.5 °F 49.1 °F 68% 30.26 in 10.0 mi North 8.1 mph - N/A   Scattered Clouds
3:36 AM 59.5 °F 49.3 °F 69% 30.27 in 10.0 mi North 8.1 mph - N/A   Scattered Clouds
3:56 AM 60.3 °F 50.4 °F 70% 30.26 in 10.0 mi North 6.9 mph - N/A   Mostly Cloudy
4:16 AM 59.2 °F 50.7 °F 74% 30.27 in 10.0 mi North 5.8 mph - N/A   Overcast
4:36 AM 57.6 °F 50.9 °F 78% 30.28 in 10.0 mi North 6.9 mph - N/A   Scattered Clouds
4:56 AM 58.1 °F 51.1 °F 77% 30.27 in 10.0 mi North 8.1 mph - N/A   Scattered Clouds
5:16 AM 58.6 °F 51.3 °F 76% 30.27 in 10.0 mi North 9.2 mph - N/A   Clear
5:36 AM 59.2 °F 50.9 °F 74% 30.27 in 10.0 mi North 6.9 mph - N/A   Clear
5:56 AM 59.2 °F 51.1 °F 74% 30.28 in 10.0 mi North 6.9 mph - N/A   Clear
6:16 AM 59.2 °F 51.3 °F 75% 30.28 in 10.0 mi NNW 5.8 mph - N/A   Scattered Clouds
6:36 AM 59.9 °F 51.1 °F 73% 30.28 in 10.0 mi North 4.6 mph - N/A   Clear
6:56 AM 59.5 °F 51.8 °F 76% 30.29 in 10.0 mi North 4.6 mph - N/A   Scattered Clouds
7:16 AM 60.4 °F 52.2 °F 74% 30.29 in 10.0 mi Calm Calm - N/A   Clear
7:36 AM 61.7 °F 52.2 °F 71% 30.30 in 10.0 mi Calm Calm - N/A   Clear
7:56 AM 63.5 °F 51.3 °F 64% 30.30 in 10.0 mi Calm Calm - N/A   Clear
8:16 AM 64.9 °F 51.1 °F 61% 30.30 in 10.0 mi Calm Calm - N/A   Clear
8:36 AM 65.5 °F 49.1 °F 55% 30.30 in 10.0 mi East 3.5 mph - N/A   Clear
8:56 AM 67.8 °F 49.1 °F 51% 30.30 in 10.0 mi SE 3.5 mph - N/A   Clear
9:16 AM 69.6 °F 50.4 °F 50% 30.30 in 10.0 mi SSE 8.1 mph - N/A   Clear
9:36 AM 70.3 °F 50.4 °F 49% 30.28 in 10.0 mi South 9.2 mph - N/A   Clear
9:56 AM 70.5 °F 50.5 °F 49% 30.29 in 10.0 mi SSE 8.1 mph - N/A   Clear
10:16 AM 70.3 °F 52.0 °F 52% 30.28 in 10.0 mi South 4.6 mph - N/A   Clear
10:36 AM 71.4 °F 51.4 °F 49% 30.28 in 10.0 mi SSE 6.9 mph - N/A   Clear
10:56 AM 70.3 °F 52.3 °F 53% 30.29 in 10.0 mi SSE 9.2 mph - N/A   Clear
11:16 AM 72.3 °F 52.9 °F 50% 30.28 in 10.0 mi SSE 9.2 mph - N/A   Clear
11:36 AM 73.9 °F 52.7 °F 47% 30.28 in 10.0 mi SSW 9.2 mph - N/A   Clear
11:56 AM 72.5 °F 52.3 °F 49% 30.28 in 10.0 mi SSE 9.2 mph - N/A   Clear
12:16 PM 73.6 °F 53.2 °F 49% 30.27 in 10.0 mi South 10.4 mph 16.1 mph N/A   Clear
12:36 PM 74.1 °F 53.6 °F 49% 30.25 in 10.0 mi SSE 9.2 mph - N/A   Clear
12:56 PM 75.4 °F 53.8 °F 47% 30.24 in 10.0 mi SE 11.5 mph 17.3 mph N/A   Clear
1:16 PM 75.6 °F 53.8 °F 47% 30.24 in 10.0 mi SE 9.2 mph 17.3 mph N/A   Clear
1:36 PM 76.1 °F 54.1 °F 46% 30.24 in 10.0 mi SSE 8.1 mph 16.1 mph N/A   Clear
1:55 PM 74.1 °F 53.2 °F 48% 30.23 in 10.0 mi South 12.7 mph 16.1 mph N/A   Clear
2:15 PM 76.1 °F 53.4 °F 45% 30.23 in 10.0 mi SW 3.5 mph - N/A   Clear
2:36 PM 71.6 °F 49.5 °F 45% 30.22 in 10.0 mi ENE 5.8 mph 11.5 mph N/A   Scattered Clouds
2:56 PM 75.9 °F 52.7 °F 44% 30.22 in 10.0 mi NNE 5.8 mph - N/A   Scattered Clouds
3:16 PM 77.0 °F 52.7 °F 43% 30.22 in 10.0 mi Calm Calm - N/A   Clear
3:36 PM 78.3 °F 53.6 °F 42% 30.22 in 10.0 mi East 4.6 mph - N/A   Scattered Clouds
3:56 PM 71.4 °F 51.3 °F 49% 30.22 in 10.0 mi North 9.2 mph - N/A   Mostly Cloudy
4:16 PM 71.6 °F 50.7 °F 48% 30.21 in 10.0 mi North 10.4 mph - N/A   Mostly Cloudy
4:36 PM 71.6 °F 51.3 °F 49% 30.21 in 10.0 mi NNE 10.4 mph - N/A   Mostly Cloudy
4:56 PM 70.7 °F 51.8 °F 51% 30.21 in 10.0 mi ENE 6.9 mph - N/A   Mostly Cloudy
5:16 PM 69.6 °F 52.7 °F 55% 30.22 in 10.0 mi East 5.8 mph - N/A   Mostly Cloudy
5:36 PM 65.8 °F 57.4 °F 74% 30.20 in 10.0 mi Calm Calm - N/A Rain Light Rain
5:56 PM 66.0 °F 57.9 °F 75% 30.19 in 10.0 mi NNE 3.5 mph - N/A Rain , Thunderstorm Light Thunderstorms and Rain
6:16 PM 67.5 °F 57.7 °F 71% 30.20 in 10.0 mi NNE 10.4 mph - N/A Rain Light Rain
6:36 PM 62.2 °F 56.1 °F 80% 30.20 in 10.0 mi North 8.1 mph - N/A Thunderstorm Thunderstorm
6:56 PM 60.3 °F 54.0 °F 80% 30.23 in 7.0 mi SE 8.1 mph 24.2 mph N/A Rain Heavy Rain
7:16 PM 59.0 °F 56.3 °F 91% 30.22 in 10.0 mi East 5.8 mph - N/A Rain , Thunderstorm Light Thunderstorms and Rain
7:36 PM 60.6 °F 57.2 °F 88% 30.20 in 10.0 mi NNE 4.6 mph - N/A   Overcast
7:56 PM 61.0 °F 57.0 °F 87% 30.19 in 10.0 mi ENE 4.6 mph - N/A   Overcast
8:16 PM 60.6 °F 57.2 °F 88% 30.20 in 10.0 mi NNE 4.6 mph - N/A   Mostly Cloudy
8:36 PM 60.3 °F 57.0 °F 89% 30.22 in 10.0 mi NNE 6.9 mph - N/A   Clear
8:56 PM 59.7 °F 57.2 °F 91% 30.23 in 10.0 mi NNE 6.9 mph - N/A   Scattered Clouds
9:16 PM 59.9 °F 55.8 °F 86% 30.23 in 10.0 mi NE 6.9 mph - N/A   Mostly Cloudy
9:36 PM 59.9 °F 55.4 °F 85% 30.24 in 10.0 mi NE 4.6 mph - N/A   Scattered Clouds
9:56 PM 60.1 °F 55.8 °F 86% 30.26 in 10.0 mi North 5.8 mph - N/A Thunderstorm Mostly Cloudy
10:16 PM 61.0 °F 55.4 °F 82% 30.28 in 10.0 mi NNW 11.5 mph 19.6 mph N/A Thunderstorm Thunderstorm
10:36 PM 59.2 °F 51.8 °F 77% 30.28 in 10.0 mi North 17.3 mph 23.0 mph N/A   Overcast
10:56 PM 57.2 °F 48.6 °F 73% 30.28 in 10.0 mi North 17.3 mph 21.9 mph N/A Thunderstorm Thunderstorm
11:16 PM 56.1 °F 49.1 °F 77% 30.29 in 10.0 mi North 13.8 mph - N/A Rain , Thunderstorm Thunderstorms and Rain
11:36 PM 55.6 °F 50.9 °F 84% 30.29 in 10.0 mi North 10.4 mph - N/A Rain Light Rain